Location: USNO
(38.9242°N, 77.0663°W)
Time: 07:50:42
(UTC-04:00)

Tiangong 2 - Pass Details

Date: 12 October 2017
Orbit: 388 x 391 km, 42.8° (Epoch: 23 October)

Event Time Altitude Azimuth Distance (km) Brightness Sun altitude
Exits shadow 05:16:09 34° 60° (ENE) 669 2.8 -23.8°
Drops below altitude 10° 05:18:06 10° 68° (ENE) 1,422 5.0 -23.5°
Sets 05:20:12 0° 70° (ENE) 2,279 6.4 -23.1°
